TimeEST,TemperatureF,Dew PointF,Humidity,Sea Level PressureIn,VisibilityMPH,Wind Direction,Wind SpeedMPH,Gust SpeedMPH,PrecipitationIn,Events,Conditions,WindDirDegrees,DateUTC
12:13 AM,33.4,30.9,90,29.56,4.0,ENE,9.2,17.3,N/A,Snow,Light Snow,60,2013-02-27 05:13:00
12:34 AM,33.4,30.7,90,29.56,4.0,ENE,10.4,16.1,N/A,Snow,Light Snow,60,2013-02-27 05:34:00
12:54 AM,33.4,30.9,90,29.55,4.0,NE,10.4,18.4,N/A,Snow,Light Snow,50,2013-02-27 05:54:00
1:13 AM,33.4,31.1,91,29.54,4.0,ENE,11.5,16.1,N/A,Snow,Light Snow,60,2013-02-27 06:13:00
1:34 AM,33.8,30.2,87,29.54,5.0,ENE,10.4,17.3,N/A,Snow,Light Snow,60,2013-02-27 06:34:00
1:54 AM,33.8,30.6,88,29.53,5.0,NE,8.1,17.3,N/A,Snow,Light Snow,50,2013-02-27 06:54:00
2:14 AM,33.8,31.1,90,29.53,5.0,NE,9.2,-,N/A,Snow,Light Snow,50,2013-02-27 07:14:00
2:34 AM,33.6,31.5,92,29.52,4.0,ENE,10.4,16.1,N/A,Snow,Light Snow,60,2013-02-27 07:34:00
2:54 AM,33.3,32.0,95,29.52,1.2,NE,9.2,-,N/A,Snow,Light Snow,50,2013-02-27 07:54:00
3:14 AM,33.4,32.0,94,29.51,1.2,ENE,6.9,-,N/A,Snow,Light Snow,60,2013-02-27 08:14:00
3:34 AM,33.4,32.0,94,29.51,2.0,NE,6.9,-,N/A,Snow,Light Snow,50,2013-02-27 08:34:00
3:54 AM,33.4,32.0,94,29.50,1.2,NE,8.1,-,N/A,Snow,Light Snow,40,2013-02-27 08:54:00
4:13 AM,33.4,32.2,95,29.50,1.0,NE,5.8,-,N/A,Snow,Light Snow,40,2013-02-27 09:13:00
4:34 AM,33.4,32.2,95,29.50,1.5,NE,6.9,-,N/A,Snow,Light Snow,50,2013-02-27 09:34:00
4:54 AM,33.8,32.4,94,29.50,1.8,NE,5.8,-,N/A,Snow,Light Snow,50,2013-02-27 09:54:00
5:14 AM,33.8,32.5,95,29.50,1.2,NE,6.9,-,N/A,Snow,Light Snow,50,2013-02-27 10:14:00
5:34 AM,33.8,32.9,96,29.50,2.5,NNE,4.6,-,N/A,Snow,Light Snow,30,2013-02-27 10:34:00
5:54 AM,33.8,32.9,96,29.50,3.0,NE,4.6,-,N/A,Snow,Light Snow,40,2013-02-27 10:54:00
6:14 AM,34.0,32.9,96,29.50,3.0,NE,5.8,-,N/A,Snow,Light Snow,40,2013-02-27 11:14:00
6:34 AM,34.2,32.9,95,29.50,7.0,NE,6.9,-,N/A,Snow,Light Snow,40,2013-02-27 11:34:00
6:54 AM,34.2,32.9,95,29.50,7.0,NE,6.9,-,N/A,Snow,Light Snow,50,2013-02-27 11:54:00
7:14 AM,34.2,32.9,95,29.50,7.0,NE,6.9,-,N/A,Snow,Light Snow,40,2013-02-27 12:14:00
7:34 AM,34.0,32.7,95,29.51,3.0,NE,5.8,-,N/A,Snow,Light Snow,40,2013-02-27 12:34:00
7:54 AM,34.2,32.9,95,29.51,7.0,NE,5.8,-,N/A,,Overcast,40,2013-02-27 12:54:00
8:14 AM,34.2,32.9,95,29.51,10.0,NE,5.8,-,N/A,,Overcast,40,2013-02-27 13:14:00
8:34 AM,34.7,32.5,92,29.51,10.0,ENE,6.9,-,N/A,,Overcast,60,2013-02-27 13:34:00
8:53 AM,34.7,32.5,92,29.51,10.0,ENE,8.1,-,N/A,,Overcast,60,2013-02-27 13:53:00
9:14 AM,34.9,32.7,92,29.51,10.0,ENE,5.8,-,N/A,,Overcast,60,2013-02-27 14:14:00
9:34 AM,35.1,32.7,91,29.52,10.0,NE,5.8,-,N/A,,Overcast,50,2013-02-27 14:34:00
10:14 AM,35.6,32.4,88,29.52,10.0,NE,8.1,-,N/A,,Overcast,50,2013-02-27 15:14:00
10:33 AM,35.6,32.5,89,29.52,10.0,ENE,6.9,16.1,N/A,,Overcast,70,2013-02-27 15:33:00
10:54 AM,35.6,32.4,88,29.52,10.0,ENE,6.9,-,N/A,,Overcast,70,2013-02-27 15:54:00
11:14 AM,35.6,32.4,88,29.52,10.0,ENE,6.9,-,N/A,,Overcast,70,2013-02-27 16:14:00
11:34 AM,35.8,32.5,88,29.52,10.0,ENE,3.5,-,N/A,,Overcast,70,2013-02-27 16:34:00
11:54 AM,36.1,32.4,86,29.52,10.0,NE,8.1,-,N/A,,Overcast,50,2013-02-27 16:54:00
12:14 PM,36.5,32.2,84,29.53,10.0,NE,8.1,-,N/A,,Overcast,50,2013-02-27 17:14:00
12:34 PM,36.5,32.0,84,29.52,10.0,ENE,8.1,-,N/A,,Overcast,70,2013-02-27 17:34:00
12:54 PM,36.5,31.1,81,29.52,7.0,ENE,4.6,-,N/A,,Overcast,60,2013-02-27 17:54:00
1:14 PM,36.5,31.6,83,29.52,7.0,ENE,5.8,-,N/A,,Overcast,70,2013-02-27 18:14:00
1:34 PM,36.5,31.6,83,29.52,10.0,NE,4.6,-,N/A,,Overcast,50,2013-02-27 18:34:00
1:54 PM,36.5,32.0,84,29.52,4.0,ENE,9.2,-,N/A,,Overcast,60,2013-02-27 18:54:00
2:14 PM,36.5,31.6,83,29.52,10.0,ENE,6.9,-,N/A,,Overcast,70,2013-02-27 19:14:00
2:34 PM,36.1,31.6,84,29.52,7.0,ENE,4.6,-,N/A,Snow,Light Snow,60,2013-02-27 19:34:00
2:54 PM,36.5,31.5,82,29.52,10.0,NE,6.9,-,N/A,,Overcast,50,2013-02-27 19:54:00
3:14 PM,36.7,31.1,80,29.52,10.0,NE,8.1,-,N/A,,Overcast,40,2013-02-27 20:14:00
3:34 PM,37.0,30.6,77,29.52,10.0,ENE,8.1,-,N/A,,Overcast,60,2013-02-27 20:34:00
3:54 PM,37.2,30.9,78,29.53,10.0,NE,8.1,-,N/A,,Overcast,50,2013-02-27 20:54:00
4:14 PM,37.0,30.7,78,29.53,10.0,NE,5.8,-,N/A,,Overcast,50,2013-02-27 21:14:00
4:34 PM,36.9,31.1,80,29.54,10.0,ENE,4.6,-,N/A,,Overcast,60,2013-02-27 21:34:00
4:54 PM,36.7,31.1,80,29.54,10.0,North,4.6,-,N/A,,Overcast,10,2013-02-27 21:54:00
5:14 PM,36.1,32.0,85,29.54,10.0,NNE,6.9,-,N/A,,Overcast,20,2013-02-27 22:14:00
5:34 PM,35.6,32.9,90,29.55,7.0,North,5.8,-,N/A,,Overcast,10,2013-02-27 22:34:00
5:54 PM,35.2,33.3,92,29.56,7.0,NNE,4.6,-,N/A,,Overcast,20,2013-02-27 22:54:00
6:14 PM,35.2,33.3,92,29.56,7.0,NNE,4.6,-,N/A,Snow,Light Snow,20,2013-02-27 23:14:00
6:34 PM,34.9,33.1,93,29.56,7.0,North,6.9,-,N/A,,Overcast,10,2013-02-27 23:34:00
6:54 PM,34.9,32.9,92,29.57,10.0,North,4.6,-,N/A,Snow,Light Snow,10,2013-02-27 23:54:00
7:14 PM,34.3,32.9,94,29.58,7.0,North,4.6,-,N/A,Snow,Light Snow,360,2013-02-28 00:14:00
7:33 PM,34.3,32.9,94,29.59,10.0,NNE,4.6,-,N/A,,Overcast,20,2013-02-28 00:33:00
7:54 PM,34.3,32.9,94,29.59,7.0,North,5.8,-,N/A,Snow,Light Snow,360,2013-02-28 00:54:00
8:14 PM,34.2,32.5,94,29.59,7.0,North,5.8,-,N/A,,Overcast,10,2013-02-28 01:14:00
8:33 PM,34.2,32.5,94,29.59,7.0,North,6.9,-,N/A,Snow,Light Snow,10,2013-02-28 01:33:00
9:14 PM,34.0,32.2,93,29.59,3.0,NNE,8.1,-,N/A,Snow,Light Snow,20,2013-02-28 02:14:00
9:34 PM,33.8,32.2,94,29.60,7.0,North,6.9,-,N/A,Snow,Light Snow,10,2013-02-28 02:34:00
9:54 PM,33.8,32.2,94,29.60,10.0,North,6.9,-,N/A,Snow,Light Snow,360,2013-02-28 02:54:00
10:14 PM,33.8,32.0,93,29.60,10.0,North,6.9,-,N/A,Snow,Light Snow,350,2013-02-28 03:14:00
10:34 PM,33.8,32.0,93,29.61,10.0,North,8.1,-,N/A,,Overcast,10,2013-02-28 03:34:00
10:54 PM,33.6,32.0,94,29.61,7.0,North,5.8,-,N/A,Snow,Light Snow,360,2013-02-28 03:54:00
11:14 PM,33.4,31.6,93,29.61,7.0,North,6.9,-,N/A,Snow,Light Snow,360,2013-02-28 04:14:00
11:34 PM,33.3,31.6,94,29.61,7.0,North,4.6,-,N/A,Snow,Light Snow,350,2013-02-28 04:34:00
11:54 PM,33.3,31.5,93,29.61,10.0,North,4.6,-,N/A,,Overcast,350,2013-02-28 04:54:00